• In Belarus
  • List of Countries
  • For 7 days
  • Water Temperature
  • Satellite Maps
  • Weather Map
  • Weather Widgets
  • user-avatar
    Login

    Hourly Weather Lemnos

    Today, 19 January, Friday

    Time Temperature Precipitation Wind Pressure Humidity
    00:00 +8°C° 0 mm 7 mps 758 mmHg 40%
    01:00 +8°C° 0 mm 6 mps 758 mmHg 39%
    02:00 +8°C° 0 mm 7 mps 758 mmHg 39%
    03:00 +8°C° 0 mm 6 mps 758 mmHg 41%
    04:00 +8°C° 0 mm 5 mps 758 mmHg 43%
    05:00 +8°C° 0 mm 5 mps 758 mmHg 46%
    06:00 +8°C° 0 mm 4 mps 758 mmHg 47%
    07:00 +8°C° 0 mm 4 mps 758 mmHg 48%
    08:00 +8°C° 0 mm 4 mps 758 mmHg 49%
    09:00 +10°C° 0 mm 4 mps 758 mmHg 47%
    10:00 +10°C° 0 mm 5 mps 758 mmHg 45%
    11:00 +12°C° 0 mm 5 mps 759 mmHg 43%
    12:00 +11°C° 0 mm 6 mps 758 mmHg 43%
    13:00 +11°C° 0 mm 6 mps 758 mmHg 42%
    14:00 +13°C° 0 mm 6 mps 758 mmHg 42%
    15:00 +11°C° 0 mm 6 mps 758 mmHg 44%
    16:00 +11°C° 0 mm 6 mps 758 mmHg 46%
    17:00 +11°C° 0 mm 6 mps 758 mmHg 48%
    18:00 +11°C° 0 mm 6 mps 758 mmHg 51%
    19:00 +10°C° 0 mm 6 mps 758 mmHg 53%
    20:00 +10°C° 0 mm 6 mps 758 mmHg 55%
    21:00 +10°C° 0 mm 7 mps 758 mmHg 58%
    22:00 +11°C° 0 mm 7 mps 758 mmHg 60%
    23:00 +11°C° 0 mm 7 mps 758 mmHg 62%

    Tomorrow, 20 January, Saturday

    Time Temperature Precipitation Wind Pressure Humidity
    00:00 +11°C° 0 mm 7 mps 758 mmHg 66%
    01:00 +11°C° 0 mm 7 mps 758 mmHg 69%
    02:00 +11°C° 0 mm 7 mps 758 mmHg 73%
    03:00 +10°C° 0 mm 6 mps 757 mmHg 74%
    04:00 +10°C° 0 mm 6 mps 757 mmHg 74%
    05:00 +10°C° 0 mm 6 mps 757 mmHg 75%
    06:00 +10°C° 0 mm 5 mps 757 mmHg 74%
    07:00 +10°C° 0 mm 5 mps 757 mmHg 74%
    08:00 +10°C° 0 mm 5 mps 757 mmHg 73%
    09:00 +12°C° 0 mm 5 mps 757 mmHg 72%
    10:00 +13°C° 0 mm 5 mps 757 mmHg 70%
    11:00 +13°C° 0 mm 5 mps 756 mmHg 69%
    12:00 +14°C° 0 mm 5 mps 756 mmHg 69%
    13:00 +14°C° 0 mm 5 mps 755 mmHg 70%
    14:00 +14°C° 0 mm 4 mps 755 mmHg 70%
    15:00 +14°C° 0 mm 5 mps 755 mmHg 72%
    16:00 +14°C° 0 mm 5 mps 754 mmHg 75%
    17:00 +14°C° 0 mm 5 mps 754 mmHg 77%
    18:00 +14°C° 0 mm 6 mps 754 mmHg 77%
    19:00 +14°C° 0 mm 6 mps 754 mmHg 76%
    20:00 +14°C° 0 mm 7 mps 754 mmHg 76%
    21:00 +14°C° 0.1 mm 7 mps 754 mmHg 75%
    22:00 +14°C° 0.1 mm 7 mps 755 mmHg 74%
    23:00 +13°C° 0.1 mm 8 mps 755 mmHg 73%

    Day after tomorrow, 21 January, Sunday

    Time Temperature Precipitation Wind Pressure Humidity
    00:00 +14°C° 0.1 mm 7 mps 755 mmHg 76%
    01:00 +13°C° 0.1 mm 6 mps 755 mmHg 79%
    02:00 +13°C° 0.1 mm 6 mps 755 mmHg 82%
    03:00 +12°C° 0.1 mm 5 mps 755 mmHg 83%
    04:00 +12°C° 0.1 mm 4 mps 755 mmHg 83%
    05:00 +11°C° 0.1 mm 3 mps 755 mmHg 83%
    06:00 +11°C° 0.1 mm 3 mps 755 mmHg 84%
    07:00 +11°C° 0.1 mm 3 mps 755 mmHg 85%
    08:00 +11°C° 0.1 mm 3 mps 755 mmHg 86%
    09:00 +12°C° 0.2 mm 4 mps 754 mmHg 83%
    10:00 +12°C° 0.2 mm 4 mps 754 mmHg 81%
    11:00 +13°C° 0.2 mm 4 mps 754 mmHg 78%
    12:00 +13°C° 0.4 mm 5 mps 753 mmHg 79%
    13:00 +13°C° 0.4 mm 6 mps 752 mmHg 80%
    14:00 +13°C° 0.4 mm 6 mps 752 mmHg 80%
    15:00 +11°C° 0.5 mm 6 mps 751 mmHg 82%
    16:00 +11°C° 0.5 mm 6 mps 751 mmHg 83%
    17:00 +11°C° 0.5 mm 6 mps 750 mmHg 84%
    18:00 +11°C° 1.1 mm 6 mps 750 mmHg 85%
    19:00 +10°C° 1.1 mm 6 mps 750 mmHg 87%
    20:00 +10°C° 1.1 mm 7 mps 750 mmHg 88%
    21:00 +10°C° 1.1 mm 6 mps 750 mmHg 86%
    22:00 +10°C° 1.1 mm 6 mps 749 mmHg 85%
    23:00 +10°C° 1.1 mm 6 mps 749 mmHg 83%

    22 January, Monday

    Time Temperature Precipitation Wind Pressure Humidity
    00:00 +10°C° 0.2 mm 7 mps 749 mmHg 77%
    01:00 +9°C° 0.2 mm 7 mps 750 mmHg 70%
    02:00 +9°C° 0.2 mm 8 mps 750 mmHg 64%
    03:00 +9°C° 0.1 mm 8 mps 750 mmHg 60%
    04:00 +9°C° 0.1 mm 7 mps 751 mmHg 56%
    05:00 +9°C° 0.1 mm 7 mps 751 mmHg 51%
    06:00 +8°C° 0.2 mm 7 mps 752 mmHg 49%
    07:00 +8°C° 0.2 mm 7 mps 753 mmHg 46%
    08:00 +8°C° 0.2 mm 7 mps 753 mmHg 44%
    09:00 +6°C° 0 mm 8 mps 754 mmHg 44%
    10:00 +6°C° 0 mm 8 mps 754 mmHg 44%
    11:00 +6°C° 0 mm 8 mps 755 mmHg 44%
    12:00 +6°C° 0 mm 8 mps 755 mmHg 44%
    13:00 +7°C° 0 mm 8 mps 755 mmHg 44%
    14:00 +8°C° 0 mm 7 mps 755 mmHg 44%
    15:00 +8°C° 0 mm 7 mps 756 mmHg 45%
    16:00 +6°C° 0 mm 7 mps 756 mmHg 45%
    17:00 +7°C° 0 mm 6 mps 757 mmHg 46%
    18:00 +6°C° 0 mm 7 mps 758 mmHg 47%
    19:00 +6°C° 0 mm 7 mps 759 mmHg 47%
    20:00 +5°C° 0 mm 7 mps 760 mmHg 48%
    21:00 +5°C° 0 mm 7 mps 760 mmHg 49%
    22:00 +5°C° 0 mm 8 mps 761 mmHg 50%
    23:00 +5°C° 0 mm 8 mps 761 mmHg 51%

    23 January, Tuesday

    Time Temperature Precipitation Wind Pressure Humidity
    00:00 +5°C° 0 mm 7 mps 761 mmHg 54%
    01:00 +5°C° 0 mm 7 mps 761 mmHg 57%
    02:00 +5°C° 0 mm 6 mps 762 mmHg 60%
    03:00 +5°C° 0 mm 6 mps 762 mmHg 62%
    04:00 +5°C° 0 mm 6 mps 762 mmHg 65%
    05:00 +6°C° 0 mm 5 mps 762 mmHg 67%
    06:00 +6°C° 0 mm 5 mps 762 mmHg 68%
    07:00 +6°C° 0 mm 5 mps 762 mmHg 69%
    08:00 +6°C° 0 mm 5 mps 762 mmHg 70%
    09:00 +7°C° 0 mm 4 mps 763 mmHg 65%
    10:00 +7°C° 0 mm 4 mps 763 mmHg 60%
    11:00 +9°C° 0 mm 3 mps 763 mmHg 55%
    12:00 +9°C° 0 mm 3 mps 763 mmHg 52%
    13:00 +10°C° 0 mm 3 mps 762 mmHg 49%
    14:00 +10°C° 0 mm 3 mps 762 mmHg 46%
    15:00 +10°C° 0 mm 2 mps 762 mmHg 46%
    16:00 +10°C° 0 mm 2 mps 762 mmHg 45%
    17:00 +9°C° 0 mm 2 mps 762 mmHg 45%
    18:00 +9°C° 0 mm 2 mps 763 mmHg 44%
    19:00 +9°C° 0 mm 2 mps 763 mmHg 43%
    20:00 +9°C° 0 mm 2 mps 763 mmHg 43%
    21:00 +9°C° 0 mm 2 mps 764 mmHg 42%
    22:00 +9°C° 0 mm 2 mps 764 mmHg 42%
    23:00 +9°C° 0 mm 3 mps 764 mmHg 42%

    24 January, Wednesday

    Time Temperature Precipitation Wind Pressure Humidity
    00:00 +9°C° 0 mm 3 mps 764 mmHg 45%
    01:00 +8°C° 0 mm 4 mps 764 mmHg 49%
    02:00 +7°C° 0 mm 4 mps 764 mmHg 53%
    03:00 +7°C° 0 mm 5 mps 764 mmHg 59%
    04:00 +7°C° 0 mm 5 mps 765 mmHg 64%
    05:00 +7°C° 0 mm 5 mps 765 mmHg 70%
    06:00 +7°C° 0 mm 5 mps 765 mmHg 73%
    07:00 +7°C° 0 mm 5 mps 765 mmHg 75%
    08:00 +7°C° 0 mm 5 mps 766 mmHg 78%
    09:00 +7°C° 0 mm 5 mps 766 mmHg 76%
    10:00 +8°C° 0 mm 5 mps 766 mmHg 75%
    11:00 +8°C° 0 mm 5 mps 766 mmHg 73%
    12:00 +8°C° 0 mm 5 mps 766 mmHg 73%
    13:00 +8°C° 0 mm 6 mps 766 mmHg 72%
    14:00 +8°C° 0 mm 6 mps 766 mmHg 71%
    15:00 +8°C° 0 mm 6 mps 766 mmHg 71%
    16:00 +8°C° 0 mm 6 mps 766 mmHg 72%
    17:00 +8°C° 0 mm 5 mps 766 mmHg 72%
    18:00 +7°C° 0 mm 6 mps 766 mmHg 72%
    19:00 +7°C° 0 mm 6 mps 767 mmHg 72%
    20:00 +7°C° 0 mm 6 mps 767 mmHg 72%
    21:00 +6°C° 0 mm 7 mps 767 mmHg 71%
    22:00 +6°C° 0 mm 7 mps 767 mmHg 69%
    23:00 +6°C° 0 mm 7 mps 767 mmHg 68%
    Show more